Tracking 20710 objects as of 30-May-2020
HD Live streaming from Space Station
objects crossing your sky now

SAUDISAT 5A

Track SAUDISAT 5A now!
10-day predictions


NORAD ID: 43831
Int'l Code: 2018-102A
Perigee: 540.0 km
Apogee: 558.6 km
Inclination: 97.6 °
Period: 95.5 minutes
Semi major axis: 6920 km
RCS: Unknown
Launch date: December 7, 2018
Source: Saudi Arabia (SAUD)
Launch site: Jiuquan Satellite Launch Center, China (JSC)
aabbcc
Your satellite tracking list
Your tracking list is empty




NASA's NSSDC Master Catalog

Two Line Element Set (TLE):
1 43831U 18102A   20151.51842689 -.00000494  00000-0 -27968-4 0  9998
2 43831  97.5686 227.7747 0013441 214.1983 203.6355 15.08039427 81438
Source of the keplerian elements: AFSPC